AAL1666 KPHX-KONT

Flight info

Callsign AAL1666
Flight time 0h 49m
Altitude 34000
Route KEENS3 HRRBR PHRED SCBBY2
Aircraft A321/M-SDE3FGHIRWY/LB1

Departure

Time 2026-05-06 12:54
Airport Phoenix Sky Harbor International Airport (KPHX)

Arrival

Time 2026-05-06 13:43
Airport Ontario International Airport (KONT)
Time Latitude Longitude Altitude Speed Heading
2026-05-06 11:43 33.43832 -112.00244 1131 ft 0 kts 152°
2026-05-06 12:45 33.43833 -112.00244 1131 ft 1 kts 152°
2026-05-06 12:45 33.43880 -112.00267 1135 ft 4 kts 177°
2026-05-06 12:46 33.43904 -112.00263 1134 ft 4 kts 218°
2026-05-06 12:46 33.43913 -112.00252 1131 ft 0 kts 248°
2026-05-06 12:48 33.43910 -112.00259 1131 ft 3 kts 248°
2026-05-06 12:48 33.43905 -112.00300 1131 ft 6 kts 267°
2026-05-06 12:48 33.43896 -112.00359 1135 ft 9 kts 239°
2026-05-06 12:49 33.43827 -112.00382 1131 ft 12 kts 182°
2026-05-06 12:49 33.43737 -112.00383 1131 ft 14 kts 180°
2026-05-06 12:49 33.43635 -112.00382 1133 ft 15 kts 180°
2026-05-06 12:49 33.43523 -112.00381 1133 ft 17 kts 179°
2026-05-06 12:50 33.43403 -112.00379 1132 ft 18 kts 180°
2026-05-06 12:50 33.43303 -112.00383 1136 ft 11 kts 181°
2026-05-06 12:50 33.43226 -112.00367 1135 ft 11 kts 135°
2026-05-06 12:50 33.43214 -112.00275 1136 ft 12 kts 91°
2026-05-06 12:51 33.43214 -112.00157 1137 ft 18 kts 90°
2026-05-06 12:51 33.43213 -112.00000 1132 ft 20 kts 90°
2026-05-06 12:51 33.43214 -111.99830 1132 ft 21 kts 90°
2026-05-06 12:51 33.43213 -111.99650 1132 ft 22 kts 89°
2026-05-06 12:52 33.43214 -111.99469 1137 ft 19 kts 90°
2026-05-06 12:52 33.43208 -111.99372 1133 ft 9 kts 114°
2026-05-06 12:52 33.43154 -111.99347 1138 ft 9 kts 178°
2026-05-06 12:52 33.43103 -111.99391 1137 ft 11 kts 263°
2026-05-06 12:53 33.43103 -111.99430 1136 ft 0 kts 270°
2026-05-06 12:53 33.43103 -111.99542 1135 ft 47 kts 270°
2026-05-06 12:53 33.43103 -112.00249 1135 ft 120 kts 270°
2026-05-06 12:53 33.43105 -112.01482 1247 ft 165 kts 270°
2026-05-06 12:54 33.43108 -112.02840 1919 ft 166 kts 269°
2026-05-06 12:54 33.43053 -112.04210 2680 ft 164 kts 266°
2026-05-06 12:54 33.42976 -112.05587 3238 ft 172 kts 266°
2026-05-06 12:54 33.42891 -112.07102 3508 ft 193 kts 266°
2026-05-06 12:55 33.42531 -112.08731 3693 ft 215 kts 248°
2026-05-06 12:55 33.41950 -112.10490 3872 ft 240 kts 249°
2026-05-06 12:55 33.41320 -112.12454 4237 ft 262 kts 249°
2026-05-06 12:55 33.40667 -112.14519 4979 ft 268 kts 249°
2026-05-06 12:56 33.40007 -112.16625 5817 ft 272 kts 250°
2026-05-06 12:56 33.39429 -112.18757 6626 ft 275 kts 259°
2026-05-06 12:56 33.39282 -112.21052 7425 ft 279 kts 274°
2026-05-06 12:56 33.39578 -112.23353 8224 ft 282 kts 281°
2026-05-06 12:57 33.39936 -112.25671 9033 ft 285 kts 280°
2026-05-06 12:57 33.40291 -112.28014 9805 ft 288 kts 280°
2026-05-06 12:57 33.40648 -112.30401 10407 ft 300 kts 280°
2026-05-06 12:57 33.41026 -112.32954 10637 ft 323 kts 280°
2026-05-06 12:58 33.41426 -112.35662 11118 ft 335 kts 280°
2026-05-06 12:58 33.41828 -112.38385 11826 ft 338 kts 281°
2026-05-06 12:58 33.42240 -112.41166 12575 ft 341 kts 281°
2026-05-06 12:58 33.42656 -112.43974 13285 ft 344 kts 280°
2026-05-06 12:59 33.43073 -112.46810 13976 ft 347 kts 280°
2026-05-06 12:59 33.43494 -112.49671 14659 ft 351 kts 280°
2026-05-06 12:59 33.43918 -112.52556 15348 ft 353 kts 280°
2026-05-06 12:59 33.44346 -112.55469 16008 ft 357 kts 280°
2026-05-06 13:00 33.44776 -112.58407 16659 ft 360 kts 280°
2026-05-06 13:00 33.45047 -112.61397 17281 ft 364 kts 271°
2026-05-06 13:00 33.45083 -112.64396 17903 ft 367 kts 271°
2026-05-06 13:00 33.45120 -112.67460 18554 ft 369 kts 271°
2026-05-06 13:01 33.45160 -112.70542 19161 ft 372 kts 271°
2026-05-06 13:01 33.45200 -112.73652 19738 ft 375 kts 271°
2026-05-06 13:01 33.45239 -112.76790 20315 ft 379 kts 271°
2026-05-06 13:01 33.45347 -112.79954 20867 ft 382 kts 277°
2026-05-06 13:02 33.45845 -112.83094 21417 ft 385 kts 283°
2026-05-06 13:02 33.46434 -112.86193 21955 ft 389 kts 283°
2026-05-06 13:02 33.47036 -112.89363 22475 ft 392 kts 283°
2026-05-06 13:02 33.47642 -112.92558 22990 ft 395 kts 283°
2026-05-06 13:03 33.48249 -112.95789 23455 ft 399 kts 283°
2026-05-06 13:03 33.48858 -112.99045 23908 ft 403 kts 283°
2026-05-06 13:03 33.49467 -113.02332 24349 ft 406 kts 283°
2026-05-06 13:03 33.50079 -113.05649 24801 ft 409 kts 283°
2026-05-06 13:04 33.50690 -113.08978 25258 ft 411 kts 283°
2026-05-06 13:04 33.51306 -113.12331 25702 ft 413 kts 283°
2026-05-06 13:04 33.51919 -113.15655 26119 ft 415 kts 283°
2026-05-06 13:04 33.52547 -113.19042 26546 ft 417 kts 283°
2026-05-06 13:05 33.53180 -113.22449 26932 ft 420 kts 283°
2026-05-06 13:05 33.53816 -113.25880 27316 ft 423 kts 283°
2026-05-06 13:05 33.54452 -113.29332 27691 ft 425 kts 283°
2026-05-06 13:05 33.55087 -113.32803 28066 ft 428 kts 283°
2026-05-06 13:06 33.55726 -113.36301 28416 ft 431 kts 283°
2026-05-06 13:06 33.56369 -113.39818 28744 ft 434 kts 283°
2026-05-06 13:06 33.57006 -113.43313 29047 ft 437 kts 283°
2026-05-06 13:06 33.57656 -113.46885 29352 ft 440 kts 283°
2026-05-06 13:07 33.58311 -113.50480 29635 ft 443 kts 284°
2026-05-06 13:07 33.58975 -113.54103 29923 ft 446 kts 284°
2026-05-06 13:07 33.59652 -113.57749 30204 ft 449 kts 284°
2026-05-06 13:07 33.60340 -113.61419 30496 ft 452 kts 284°
2026-05-06 13:08 33.61032 -113.65108 30812 ft 455 kts 284°
2026-05-06 13:08 33.61724 -113.68816 31126 ft 457 kts 284°
2026-05-06 13:08 33.62406 -113.72486 31496 ft 456 kts 284°
2026-05-06 13:08 33.63091 -113.76198 31947 ft 455 kts 283°
2026-05-06 13:09 33.63771 -113.79898 32409 ft 453 kts 283°
2026-05-06 13:09 33.64448 -113.83573 32885 ft 449 kts 282°
2026-05-06 13:09 33.64919 -113.87263 33306 ft 447 kts 274°
2026-05-06 13:09 33.64938 -113.90977 33749 ft 444 kts 269°
2026-05-06 13:10 33.64875 -113.94672 33991 ft 441 kts 268°
2026-05-06 13:10 33.64757 -114.01849 34044 ft 426 kts 269°
2026-05-06 13:11 33.64628 -114.08963 34044 ft 427 kts 269°
2026-05-06 13:11 33.64969 -114.16056 34046 ft 426 kts 277°
2026-05-06 13:12 33.65687 -114.23123 34036 ft 427 kts 276°
2026-05-06 13:12 33.66387 -114.30185 34042 ft 426 kts 276°
2026-05-06 13:13 33.67070 -114.37204 34043 ft 426 kts 276°
2026-05-06 13:13 33.67761 -114.44261 34037 ft 426 kts 276°
2026-05-06 13:14 33.68448 -114.51335 34040 ft 427 kts 276°
2026-05-06 13:14 33.69138 -114.58411 34050 ft 427 kts 276°
2026-05-06 13:15 33.69817 -114.65446 34055 ft 428 kts 276°
2026-05-06 13:15 33.70480 -114.72545 34056 ft 428 kts 276°
2026-05-06 13:16 33.71157 -114.79641 34048 ft 428 kts 276°
2026-05-06 13:16 33.71833 -114.86729 34046 ft 427 kts 276°
2026-05-06 13:17 33.72495 -114.93778 34045 ft 428 kts 276°
2026-05-06 13:17 33.73159 -115.00881 34035 ft 429 kts 277°
2026-05-06 13:18 33.73824 -115.08011 34031 ft 430 kts 277°
2026-05-06 13:18 33.74489 -115.15165 33990 ft 433 kts 277°
2026-05-06 13:18 33.74815 -115.18719 33733 ft 434 kts 277°
2026-05-06 13:19 33.75159 -115.22325 33475 ft 434 kts 278°
2026-05-06 13:19 33.75521 -115.25908 33009 ft 431 kts 278°
2026-05-06 13:19 33.75895 -115.29474 32500 ft 429 kts 279°
2026-05-06 13:19 33.76265 -115.33017 31992 ft 426 kts 279°
2026-05-06 13:20 33.76629 -115.36540 31480 ft 424 kts 279°
2026-05-06 13:20 33.76988 -115.40050 30971 ft 422 kts 280°
2026-05-06 13:20 33.77345 -115.43548 30458 ft 421 kts 280°
2026-05-06 13:20 33.77700 -115.46992 29957 ft 420 kts 281°
2026-05-06 13:21 33.78060 -115.50466 29455 ft 419 kts 281°
2026-05-06 13:21 33.78417 -115.53931 28936 ft 418 kts 281°
2026-05-06 13:21 33.78773 -115.57393 28449 ft 417 kts 281°
2026-05-06 13:21 33.79129 -115.60846 27962 ft 415 kts 281°
2026-05-06 13:22 33.79482 -115.64296 27529 ft 417 kts 281°
2026-05-06 13:22 33.79835 -115.67762 27079 ft 418 kts 281°
2026-05-06 13:22 33.80185 -115.71222 26637 ft 416 kts 281°
2026-05-06 13:22 33.80530 -115.74666 26195 ft 414 kts 281°
2026-05-06 13:23 33.80868 -115.78096 25753 ft 412 kts 281°
2026-05-06 13:23 33.81090 -115.80363 25462 ft 411 kts 281°
2026-05-06 13:23 33.81532 -115.84868 24884 ft 409 kts 281°
2026-05-06 13:23 33.81868 -115.88253 24449 ft 406 kts 281°
2026-05-06 13:24 33.82201 -115.91616 24017 ft 404 kts 281°
2026-05-06 13:24 33.82531 -115.94961 23604 ft 401 kts 281°
2026-05-06 13:24 33.82856 -115.98292 23148 ft 400 kts 281°
2026-05-06 13:24 33.83068 -116.00481 22867 ft 397 kts 281°
2026-05-06 13:25 33.83494 -116.04868 22304 ft 393 kts 281°
2026-05-06 13:25 33.83807 -116.08070 21894 ft 388 kts 281°
2026-05-06 13:25 33.84121 -116.11274 21477 ft 384 kts 281°
2026-05-06 13:25 33.84432 -116.14450 21069 ft 381 kts 281°
2026-05-06 13:26 33.84641 -116.16533 20803 ft 378 kts 281°
2026-05-06 13:26 33.85067 -116.20711 20273 ft 374 kts 281°
2026-05-06 13:26 33.85385 -116.23803 19890 ft 372 kts 281°
2026-05-06 13:26 33.85594 -116.25842 19621 ft 369 kts 281°
2026-05-06 13:27 33.85959 -116.29382 19166 ft 366 kts 281°
2026-05-06 13:27 33.86284 -116.32405 18777 ft 363 kts 281°
2026-05-06 13:27 33.86614 -116.35399 18392 ft 360 kts 281°
2026-05-06 13:27 33.86941 -116.38372 18010 ft 357 kts 281°
2026-05-06 13:28 33.87263 -116.41325 17524 ft 356 kts 281°
2026-05-06 13:28 33.87474 -116.43277 17259 ft 354 kts 281°
2026-05-06 13:28 33.87882 -116.46169 16873 ft 348 kts 288°
2026-05-06 13:28 33.88571 -116.48947 16506 ft 346 kts 290°
2026-05-06 13:29 33.89485 -116.52608 16020 ft 344 kts 290°
2026-05-06 13:29 33.90168 -116.55355 15727 ft 342 kts 290°
2026-05-06 13:29 33.90855 -116.58094 15475 ft 341 kts 290°
2026-05-06 13:29 33.91545 -116.60828 15219 ft 341 kts 290°
2026-05-06 13:30 33.92000 -116.62632 15049 ft 340 kts 290°
2026-05-06 13:30 33.92684 -116.65348 14792 ft 338 kts 290°
2026-05-06 13:30 33.93365 -116.68052 14538 ft 337 kts 290°
2026-05-06 13:30 33.94045 -116.70750 14287 ft 336 kts 290°
2026-05-06 13:31 33.94751 -116.74378 13950 ft 339 kts 278°
2026-05-06 13:31 33.94814 -116.76304 13586 ft 343 kts 270°
2026-05-06 13:31 33.94717 -116.79177 13060 ft 344 kts 270°
2026-05-06 13:31 33.94615 -116.82010 12556 ft 343 kts 270°
2026-05-06 13:32 33.94514 -116.84876 12035 ft 342 kts 270°
2026-05-06 13:32 33.94412 -116.87744 11528 ft 342 kts 270°
2026-05-06 13:32 33.94311 -116.90540 11019 ft 328 kts 269°
2026-05-06 13:32 33.94215 -116.93266 10536 ft 324 kts 269°
2026-05-06 13:33 33.94304 -116.95939 10077 ft 313 kts 281°
2026-05-06 13:33 33.94848 -116.98377 9720 ft 291 kts 293°
2026-05-06 13:33 33.95641 -117.00619 9603 ft 292 kts 294°
2026-05-06 13:33 33.96422 -117.02837 9450 ft 291 kts 294°
2026-05-06 13:34 33.97207 -117.05086 9058 ft 290 kts 293°
2026-05-06 13:34 33.97980 -117.07311 8641 ft 288 kts 293°
2026-05-06 13:34 33.98749 -117.09533 8188 ft 283 kts 292°
2026-05-06 13:34 33.99500 -117.11705 7772 ft 278 kts 293°
2026-05-06 13:35 34.00228 -117.13801 7558 ft 262 kts 293°
2026-05-06 13:35 34.00903 -117.15744 7390 ft 243 kts 293°
2026-05-06 13:35 34.01547 -117.17624 6984 ft 242 kts 290°
2026-05-06 13:35 34.01951 -117.19347 6636 ft 240 kts 284°
2026-05-06 13:36 34.02360 -117.21262 6252 ft 238 kts 285°
2026-05-06 13:36 34.02776 -117.23181 5868 ft 236 kts 285°
2026-05-06 13:36 34.03191 -117.25084 5491 ft 234 kts 285°
2026-05-06 13:36 34.03602 -117.26953 5271 ft 225 kts 285°
2026-05-06 13:37 34.03984 -117.28697 5098 ft 209 kts 285°
2026-05-06 13:37 34.04359 -117.30405 5050 ft 212 kts 285°
2026-05-06 13:37 34.04734 -117.32128 4947 ft 213 kts 285°
2026-05-06 13:37 34.05102 -117.33846 4595 ft 206 kts 284°
2026-05-06 13:38 34.05367 -117.35430 4524 ft 191 kts 277°
2026-05-06 13:38 34.05450 -117.37026 4332 ft 190 kts 272°
2026-05-06 13:38 34.05473 -117.38616 4099 ft 190 kts 271°
2026-05-06 13:38 34.05480 -117.40200 3845 ft 188 kts 271°
2026-05-06 13:39 34.05483 -117.41764 3600 ft 182 kts 271°
2026-05-06 13:39 34.05486 -117.43192 3387 ft 160 kts 270°
2026-05-06 13:39 34.05488 -117.44501 3182 ft 153 kts 271°
2026-05-06 13:39 34.05489 -117.45765 2979 ft 150 kts 270°
2026-05-06 13:40 34.05490 -117.47413 2715 ft 147 kts 270°
2026-05-06 13:40 34.05492 -117.48230 2583 ft 147 kts 269°
2026-05-06 13:40 34.05493 -117.49461 2386 ft 147 kts 269°
2026-05-06 13:40 34.05494 -117.50696 2192 ft 149 kts 268°
2026-05-06 13:41 34.05494 -117.51948 1996 ft 149 kts 271°
2026-05-06 13:41 34.05495 -117.53202 1791 ft 148 kts 271°
2026-05-06 13:41 34.05496 -117.54444 1599 ft 148 kts 271°
2026-05-06 13:41 34.05497 -117.55678 1410 ft 147 kts 272°
2026-05-06 13:42 34.05497 -117.56906 1211 ft 146 kts 271°
2026-05-06 13:42 34.05497 -117.58132 1015 ft 146 kts 271°
2026-05-06 13:42 34.05497 -117.59271 944 ft 111 kts 270°
2026-05-06 13:42 34.05496 -117.59991 944 ft 71 kts 270°
2026-05-06 13:43 34.05499 -117.60330 944 ft 19 kts 277°
2026-05-06 13:43 34.05539 -117.60479 945 ft 13 kts 295°
2026-05-06 13:43 34.05582 -117.60570 944 ft 14 kts 304°
2026-05-06 13:43 34.05648 -117.60659 944 ft 15 kts 314°
2026-05-06 13:44 34.05723 -117.60747 944 ft 13 kts 323°
2026-05-06 13:44 34.05794 -117.60740 945 ft 10 kts 53°
2026-05-06 13:44 34.05800 -117.60649 945 ft 12 kts 89°
2026-05-06 13:44 34.05800 -117.60534 945 ft 15 kts 90°
2026-05-06 13:45 34.05798 -117.60401 945 ft 17 kts 90°
2026-05-06 13:45 34.05800 -117.60089 944 ft 20 kts 89°
2026-05-06 13:45 34.05799 -117.59916 943 ft 21 kts 91°
2026-05-06 13:46 34.05800 -117.59756 943 ft 18 kts 89°
2026-05-06 13:46 34.05801 -117.59595 943 ft 20 kts 89°
2026-05-06 13:46 34.05801 -117.59428 942 ft 19 kts 90°
2026-05-06 13:46 34.05800 -117.59265 943 ft 19 kts 90°
2026-05-06 13:47 34.05801 -117.59107 944 ft 17 kts 89°
2026-05-06 13:47 34.05810 -117.59005 943 ft 11 kts 57°
2026-05-06 13:47 34.05881 -117.58977 944 ft 10 kts 27°
2026-05-06 13:47 34.05899 -117.58892 944 ft 12 kts 89°
2026-05-06 13:48 34.05899 -117.58818 944 ft 8 kts 90°
2026-05-06 13:48 34.05899 -117.58750 944 ft 6 kts 90°
2026-05-06 13:48 34.05899 -117.58711 944 ft 0 kts 90°
2026-05-06 13:49 34.05899 -117.58710 944 ft 1 kts 90°
2026-05-06 13:49 34.05899 -117.58688 944 ft 4 kts 90°
2026-05-06 13:49 34.05899 -117.58641 944 ft 7 kts 90°
2026-05-06 13:50 34.05900 -117.58607 944 ft 0 kts 85°
2026-05-06 13:50 34.05907 -117.58604 943 ft 3 kts 24°
2026-05-06 13:50 34.05940 -117.58598 943 ft 4 kts
2026-05-06 13:50 34.05963 -117.58598 944 ft 2 kts 360°
2026-05-06 13:51 34.05978 -117.58598 944 ft 2 kts
2026-05-06 13:51 34.05986 -117.58598 944 ft 0 kts